{"data":{"norad_id":31573,"intl_designator":"2007-020C","name":"GLOBALSTAR M069","alt_names":[],"object_type":"PAYLOAD","status":"ACTIVE","operator":null,"country":"GLOB","launch_date":"2007-05-29","launch_site_code":"TYMSC","launch_vehicle":null,"mission":null,"orbit_class":"UNKNOWN","rcs_meters":2.4163,"size_class":null,"mass_kg":null,"dimensions":null,"purposes":["comms"],"wikipedia_slug":null,"has_3d_model":false,"image_url":null,"decayed_at":null,"tle_current":{"epoch":"2026-09-19T23:37:00.806304Z","epoch_age_seconds":62898,"freshness":"FRESH","line1":"1 31573U 07020C   26262.98403711 -.00000058  00000+0  31731-3 0  9990","line2":"2 31573  52.0067 343.8139 0001500 354.2050 177.3739 12.23475082890409","mean_motion":12.23475082,"eccentricity":0.00015,"inclination_deg":52.0067,"raan_deg":343.8139,"arg_perigee_deg":354.205,"mean_anomaly_deg":177.3739,"bstar":0.00031731,"rev_number":89040,"period_min":117.69753394945,"perigee_km":1576.2479823854,"apogee_km":1578.6346558811,"semimajor_km":7955.5783191332,"source":"CELESTRAK","updated_at":"2026-09-20T09:00:45.016931Z"}}}